TimeAKST,TemperatureF,Dew PointF,Humidity,Sea Level PressureIn,VisibilityMPH,Wind Direction,Wind SpeedMPH,Gust SpeedMPH,PrecipitationIn,Events,Conditions,WindDirDegrees,DateUTC
12:53 AM,37.9,37.0,97,29.84,10.0,ESE,5.8,-,0.06,Rain,Light Rain,110,2013-01-02 09:53:00
1:53 AM,37.9,36.0,93,29.83,10.0,Calm,Calm,-,0.00,,Overcast,0,2013-01-02 10:53:00
2:16 AM,39.2,37.4,93,29.83,10.0,WNW,6.9,-,N/A,,Overcast,300,2013-01-02 11:16:00
2:26 AM,39.2,37.4,93,29.83,10.0,NNW,10.4,-,N/A,,Overcast,330,2013-01-02 11:26:00
3:51 AM,37.4,37.4,100,29.82,10.0,Calm,Calm,-,N/A,,Overcast,0,2013-01-02 12:51:00
3:53 AM,37.9,37.0,97,29.82,10.0,Calm,Calm,-,N/A,,Overcast,0,2013-01-02 12:53:00
4:26 AM,37.4,37.4,100,29.81,10.0,Calm,Calm,-,N/A,,Overcast,0,2013-01-02 13:26:00
4:53 AM,37.0,36.0,96,29.80,10.0,East,4.6,-,N/A,,Overcast,90,2013-01-02 13:53:00
5:53 AM,37.9,36.0,93,29.81,10.0,Calm,Calm,-,N/A,,Overcast,0,2013-01-02 14:53:00
6:53 AM,37.9,37.0,97,29.81,10.0,Calm,Calm,-,N/A,,Mostly Cloudy,0,2013-01-02 15:53:00
7:22 AM,37.4,35.6,93,29.81,10.0,NE,4.6,-,N/A,,Overcast,40,2013-01-02 16:22:00
7:53 AM,37.0,37.0,100,29.81,10.0,East,4.6,-,N/A,,Overcast,80,2013-01-02 16:53:00
7:59 AM,37.4,35.6,93,29.81,10.0,East,4.6,-,N/A,,Overcast,90,2013-01-02 16:59:00
8:53 AM,37.0,37.0,100,29.83,10.0,Calm,Calm,-,N/A,,Overcast,0,2013-01-02 17:53:00
9:53 AM,37.9,37.0,97,29.83,10.0,Calm,Calm,-,N/A,,Overcast,0,2013-01-02 18:53:00
10:32 AM,37.4,37.4,100,29.83,10.0,NNW,3.5,-,N/A,,Mostly Cloudy,340,2013-01-02 19:32:00
10:51 AM,37.4,37.4,100,29.83,10.0,Calm,Calm,-,N/A,,Overcast,0,2013-01-02 19:51:00
10:53 AM,37.9,37.0,97,29.83,10.0,Calm,Calm,-,N/A,,Overcast,0,2013-01-02 19:53:00
11:40 AM,37.4,37.4,100,29.83,10.0,East,3.5,-,N/A,,Overcast,100,2013-01-02 20:40:00
11:53 AM,37.9,37.0,97,29.84,10.0,Calm,Calm,-,N/A,,Overcast,0,2013-01-02 20:53:00
12:00 PM,37.4,37.4,100,29.84,10.0,Calm,Calm,-,N/A,,Overcast,0,2013-01-02 21:00:00
12:09 PM,37.4,37.4,100,29.84,10.0,Calm,Calm,-,N/A,,Mostly Cloudy,0,2013-01-02 21:09:00
12:24 PM,39.2,37.4,93,29.84,10.0,Calm,Calm,-,N/A,,Overcast,0,2013-01-02 21:24:00
12:44 PM,37.4,37.4,100,29.84,10.0,Calm,Calm,-,N/A,,Overcast,0,2013-01-02 21:44:00
12:53 PM,39.0,37.9,96,29.84,10.0,Calm,Calm,-,N/A,,Overcast,0,2013-01-02 21:53:00
12:57 PM,39.2,37.4,93,29.85,10.0,Calm,Calm,-,N/A,,Overcast,0,2013-01-02 21:57:00
1:53 PM,39.0,37.9,96,29.86,10.0,Calm,Calm,-,N/A,,Overcast,0,2013-01-02 22:53:00
2:00 PM,39.2,37.4,93,29.85,10.0,Calm,Calm,-,N/A,,Overcast,0,2013-01-02 23:00:00
2:21 PM,39.2,37.4,93,29.86,10.0,Calm,Calm,-,N/A,,Overcast,0,2013-01-02 23:21:00
2:53 PM,39.0,37.9,96,29.87,10.0,Calm,Calm,-,N/A,,Overcast,0,2013-01-02 23:53:00
3:51 PM,37.4,37.4,100,29.88,10.0,Calm,Calm,-,N/A,,Overcast,0,2013-01-03 00:51:00
3:53 PM,37.9,37.0,97,29.88,10.0,Calm,Calm,-,N/A,,Overcast,0,2013-01-03 00:53:00
4:53 PM,36.0,36.0,100,29.89,10.0,ESE,4.6,-,N/A,,Overcast,110,2013-01-03 01:53:00
5:53 PM,34.0,34.0,100,29.90,9.0,Calm,Calm,-,N/A,,Mostly Cloudy,0,2013-01-03 02:53:00
6:53 PM,34.0,33.1,96,29.91,6.0,East,6.9,-,N/A,,Clear,80,2013-01-03 03:53:00
7:53 PM,33.1,32.0,96,29.93,10.0,East,3.5,-,N/A,Fog,Patches of Fog,80,2013-01-03 04:53:00
8:30 PM,33.8,32.0,93,29.95,10.0,Calm,Calm,-,N/A,Fog,Patches of Fog,0,2013-01-03 05:30:00
8:39 PM,32.0,30.2,93,29.94,1.0,Calm,Calm,-,N/A,,Mostly Cloudy,0,2013-01-03 05:39:00
8:53 PM,33.1,33.1,100,29.94,0.2,Calm,Calm,-,N/A,Fog,Fog,0,2013-01-03 05:53:00
9:44 PM,32.0,32.0,100,29.96,0.8,Calm,Calm,-,N/A,,Overcast,0,2013-01-03 06:44:00
9:53 PM,32.0,32.0,100,29.97,0.8,Calm,Calm,-,N/A,,Overcast,0,2013-01-03 06:53:00
9:56 PM,32.0,32.0,100,29.98,1.0,Calm,Calm,-,N/A,,Partly Cloudy,0,2013-01-03 06:56:00
10:01 PM,33.8,33.8,100,29.97,3.0,Calm,Calm,-,N/A,Fog,Scattered Clouds,0,2013-01-03 07:01:00
10:13 PM,32.0,32.0,100,29.97,1.0,NE,4.6,-,N/A,,Scattered Clouds,40,2013-01-03 07:13:00
10:20 PM,32.0,32.0,100,29.97,0.5,Calm,Calm,-,N/A,Fog,Fog,0,2013-01-03 07:20:00
10:48 PM,32.0,32.0,100,29.97,2.0,East,3.5,-,N/A,,Partly Cloudy,100,2013-01-03 07:48:00
10:53 PM,32.0,32.0,100,29.97,10.0,East,3.5,-,N/A,,Scattered Clouds,80,2013-01-03 07:53:00
11:53 PM,33.1,32.0,96,29.98,10.0,Calm,Calm,-,N/A,,Partly Cloudy,0,2013-01-03 08:53:00